Slayton, MN

1:08 AM CDT on August 27, 2016 (GMT -0500)
Slayton

Weather History for KDVP - January, 2014

Change the Weather History Date:

Tuesday, January 7, 2014

  Actual Average (KOTG) Record (KOTG)
Temperature  
Mean Temperature -2 °F -  
Max Temperature 6 °F 22 °F 53 °F (2003)
Min Temperature -9 °F 7 °F -24 °F (1988)
Degree Days  
Heating Degree Days 66    
Moisture  
Dew Point -8 °F    
Average Humidity 74    
Maximum Humidity 85    
Minimum Humidity 65    
Precipitation  
Precipitation 0.00 in - - ()
Sea Level Pressure  
Sea Level Pressure 30.10 in    
Wind  
Wind Speed 6 mph (West)    
Max Wind Speed 15 mph    
Max Gust Speed -    
Visibility 10 miles    
Events      
Averages and records for this station are not official NWS values.
T = Trace of Precipitation, MM = Missing Value Source: NWS Daily Summary

Daily Weather History Graph

Daily Weather History Graph

Search for Another Location

Airport or City:

Trip Planner

Search our weather history database for the weather conditions in past years. The results will help you decide how hot, cold, wet, or windy it might be!

Date:

Astronomy

Jan. 07, 2014 Rise Set
Actual Time 7:57 AM CST 5:01 PM CST
Civil Twilight 7:24 AM CST 5:34 PM CST
Nautical Twilight 6:48 AM CST 6:10 PM CST
Astronomical Twilight 6:13 AM CST 6:45 PM CST
Moon 11:31 AM CST (1/7) No Moon Set
Length of Visible Light 10h 09m
Length of Day
9h 04m
Waxing Crescent, 46% of the Moon is Illuminated
Jan 7
Waxing Crescent
Jan 7
First Quarter
Jan 15
Full
Jan 23
Last Quarter
Jan 30
New

Hourly Weather History & Observations

Time (CST) Temp. Windchill Dew Point Humidity Pressure Visibility Wind Dir Wind Speed Gust Speed Precip Events Conditions
12:05 AM -9.4 °F -26.8 °F -16.6 °F 71% 30.13 in 10.0 mi West 9.2 mph - N/A   Clear
12:25 AM -9.4 °F -24.3 °F -16.6 °F 71% 30.11 in 10.0 mi WSW 6.9 mph - N/A   Clear
12:45 AM -9.4 °F -24.3 °F -16.6 °F 71% 30.10 in 10.0 mi West 6.9 mph - N/A   Clear
1:05 AM -9.4 °F -24.3 °F -16.6 °F 71% 30.09 in 10.0 mi West 6.9 mph - N/A   Scattered Clouds
1:25 AM -9.4 °F -27.9 °F -16.6 °F 71% 30.08 in 10.0 mi WSW 10.4 mph - N/A   Mostly Cloudy
1:45 AM -9.4 °F -22.7 °F -14.8 °F 77% 30.07 in 10.0 mi West 5.8 mph - N/A   Overcast
2:05 AM -7.6 °F -23.4 °F -14.8 °F 71% 30.07 in 10.0 mi WSW 8.1 mph - N/A   Overcast
2:25 AM -9.4 °F -24.3 °F -14.8 °F 77% 30.07 in 10.0 mi SW 6.9 mph - N/A   Mostly Cloudy
2:45 AM -9.4 °F -24.3 °F -14.8 °F 77% 30.08 in 10.0 mi West 6.9 mph - N/A   Clear
3:05 AM -7.6 °F - -14.8 °F 71% 30.08 in 10.0 mi Calm Calm - N/A   Scattered Clouds
3:25 AM -7.6 °F -22.1 °F -14.8 °F 71% 30.07 in 10.0 mi WSW 6.9 mph - N/A   Overcast
3:45 AM -7.6 °F -25.7 °F -14.8 °F 71% 30.07 in 10.0 mi SW 10.4 mph - N/A   Overcast
4:05 AM -5.8 °F -22.4 °F -14.8 °F 65% 30.06 in 10.0 mi SW 9.2 mph - N/A   Mostly Cloudy
4:25 AM -5.8 °F -21.2 °F -13.0 °F 71% 30.07 in 10.0 mi SW 8.1 mph - N/A   Mostly Cloudy
4:45 AM -5.8 °F -23.4 °F -13.0 °F 71% 30.06 in 10.0 mi SW 10.4 mph - N/A   Scattered Clouds
5:05 AM -5.8 °F -22.4 °F -13.0 °F 71% 30.05 in 10.0 mi SW 9.2 mph - N/A   Clear
5:25 AM -5.8 °F -22.4 °F -13.0 °F 71% 30.04 in 10.0 mi SW 9.2 mph - N/A   Clear
5:45 AM -4.0 °F -20.2 °F -11.2 °F 71% 30.04 in 10.0 mi SW 9.2 mph - N/A   Clear
6:05 AM -4.0 °F -23.0 °F -11.2 °F 71% 30.03 in 10.0 mi WSW 12.7 mph - N/A   Clear
6:25 AM -2.2 °F -19.9 °F -11.2 °F 66% 30.02 in 10.0 mi WSW 11.5 mph - N/A   Scattered Clouds
6:45 AM -4.0 °F -24.5 °F -9.4 °F 78% 30.02 in 10.0 mi SW 15.0 mph - N/A   Mostly Cloudy
7:05 AM -2.2 °F -18.0 °F -9.4 °F 71% 30.03 in 10.0 mi SW 9.2 mph - N/A   Overcast
7:25 AM -2.2 °F -16.8 °F -9.4 °F 71% 30.03 in 10.0 mi SW 8.1 mph - N/A   Overcast
7:45 AM -2.2 °F -15.6 °F -9.4 °F 71% 30.04 in 10.0 mi WSW 6.9 mph - N/A   Overcast
8:05 AM -2.2 °F -12.5 °F -9.4 °F 71% 30.04 in 10.0 mi West 4.6 mph - N/A   Overcast
8:25 AM -2.2 °F - -7.6 °F 78% 30.05 in 10.0 mi Calm Calm - N/A   Overcast
8:45 AM -2.2 °F -12.5 °F -7.6 °F 78% 30.05 in 10.0 mi WSW 4.6 mph - N/A   Overcast
9:05 AM -0.4 °F -12.0 °F -7.6 °F 72% 30.04 in 10.0 mi SW 5.8 mph - N/A   Overcast
9:25 AM -0.4 °F -8.3 °F -7.6 °F 72% 30.06 in 10.0 mi SW 3.5 mph - N/A   Overcast
9:45 AM -0.4 °F -8.3 °F -5.8 °F 78% 30.06 in 10.0 mi West 3.5 mph - N/A   Overcast
10:05 AM 1.4 °F -8.3 °F -5.8 °F 72% 30.08 in 10.0 mi WNW 4.6 mph - N/A   Overcast
10:25 AM 3.2 °F -6.2 °F -5.8 °F 66% 30.07 in 10.0 mi WSW 4.6 mph - N/A   Mostly Cloudy
10:45 AM 3.2 °F - -4.0 °F 72% 30.08 in 10.0 mi Calm Calm - N/A   Scattered Clouds
11:05 AM 5.0 °F - -4.0 °F 66% 30.07 in 10.0 mi Calm Calm - N/A   Scattered Clouds
11:25 AM 5.0 °F - -4.0 °F 66% 30.07 in 10.0 mi Calm Calm - N/A   Clear
11:45 AM 5.0 °F -4.1 °F -4.0 °F 66% 30.07 in 10.0 mi NNW 4.6 mph - N/A   Clear
12:05 PM 5.0 °F -5.6 °F -2.2 °F 72% 30.07 in 10.0 mi NW 5.8 mph - N/A   Clear
12:25 PM 5.0 °F -4.1 °F -2.2 °F 72% 30.04 in 10.0 mi North 4.6 mph - N/A   Clear
12:45 PM 6.8 °F -2.0 °F -2.2 °F 67% 30.04 in 10.0 mi NNW 4.6 mph - N/A   Clear
1:05 PM 6.8 °F -4.8 °F -2.2 °F 67% 30.04 in 10.0 mi North 6.9 mph - N/A   Clear
1:25 PM 5.0 °F -5.6 °F -2.2 °F 72% 30.04 in 10.0 mi NNW 5.8 mph - N/A   Clear
1:45 PM 5.0 °F -6.9 °F -2.2 °F 72% 30.05 in 10.0 mi NNW 6.9 mph - N/A   Clear
2:05 PM 6.8 °F -5.9 °F -2.2 °F 67% 30.06 in 10.0 mi North 8.1 mph - N/A   Clear
2:25 PM 6.8 °F -4.8 °F -2.2 °F 67% 30.07 in 10.0 mi NNW 6.9 mph - N/A   Clear
2:45 PM 6.8 °F -4.8 °F -2.2 °F 67% 30.08 in 10.0 mi NNW 6.9 mph - N/A   Clear
3:05 PM 6.8 °F -4.8 °F -2.2 °F 67% 30.09 in 10.0 mi North 6.9 mph - N/A   Clear
3:25 PM 6.8 °F -3.5 °F -0.4 °F 72% 30.09 in 10.0 mi NNE 5.8 mph - N/A   Clear
3:45 PM 6.8 °F -4.8 °F -2.2 °F 67% 30.10 in 10.0 mi North 6.9 mph - N/A   Clear
4:05 PM 5.0 °F -4.1 °F -2.2 °F 72% 30.11 in 10.0 mi North 4.6 mph - N/A   Clear
4:25 PM 5.0 °F -4.1 °F -2.2 °F 72% 30.11 in 10.0 mi North 4.6 mph - N/A   Clear
4:45 PM 5.0 °F -2.1 °F -2.2 °F 72% 30.11 in 10.0 mi NNE 3.5 mph - N/A   Clear
5:05 PM 3.2 °F - -4.0 °F 72% 30.13 in 10.0 mi Calm Calm - N/A   Clear
5:25 PM 3.2 °F -6.2 °F -4.0 °F 72% 30.13 in 10.0 mi NNE 4.6 mph - N/A   Clear
5:45 PM 1.4 °F -6.2 °F -4.0 °F 78% 30.14 in 10.0 mi North 3.5 mph - N/A   Clear
6:05 PM 1.4 °F -6.2 °F -4.0 °F 78% 30.14 in 10.0 mi NNE 3.5 mph - N/A   Clear
6:25 PM -0.4 °F - -4.0 °F 85% 30.15 in 10.0 mi Calm Calm - N/A   Clear
6:45 PM -0.4 °F - -5.8 °F 78% 30.15 in 10.0 mi Calm Calm - N/A   Clear
7:05 PM -2.2 °F - -5.8 °F 85% 30.16 in 10.0 mi Calm Calm - N/A   Clear
7:25 PM -2.2 °F - -7.6 °F 78% 30.16 in 10.0 mi Calm Calm - N/A   Clear
7:45 PM -2.2 °F - -7.6 °F 78% 30.16 in 10.0 mi Calm Calm - N/A   Clear
8:05 PM -4.0 °F - -7.6 °F 85% 30.17 in 10.0 mi Calm Calm - N/A   Clear
8:25 PM -4.0 °F -12.4 °F -7.6 °F 85% 30.18 in 10.0 mi SW 3.5 mph - N/A   Clear
8:45 PM -4.0 °F -12.4 °F -7.6 °F 85% 30.18 in 10.0 mi SW 3.5 mph - N/A   Clear
9:05 PM -4.0 °F -12.4 °F -7.6 °F 85% 30.18 in 10.0 mi WSW 3.5 mph - N/A   Clear
9:25 PM -4.0 °F - -9.4 °F 78% 30.18 in 10.0 mi Calm Calm - N/A   Clear
9:45 PM -4.0 °F - -9.4 °F 78% 30.19 in 10.0 mi Calm Calm - N/A   Clear
10:05 PM -5.8 °F -14.5 °F -9.4 °F 84% 30.19 in 10.0 mi NW 3.5 mph - N/A   Clear
10:25 PM -5.8 °F -16.7 °F -9.4 °F 84% 30.19 in 10.0 mi WNW 4.6 mph - N/A   Clear
10:45 PM -5.8 °F -16.7 °F -9.4 °F 84% 30.19 in 10.0 mi NW 4.6 mph - N/A   Clear
11:05 PM -5.8 °F -14.5 °F -9.4 °F 84% 30.20 in 10.0 mi WNW 3.5 mph - N/A   Clear
11:25 PM -4.0 °F -14.6 °F -7.6 °F 85% 30.20 in 10.0 mi WNW 4.6 mph - N/A   Clear
11:45 PM -5.8 °F -18.4 °F -9.4 °F 84% 30.21 in 10.0 mi WNW 5.8 mph - N/A   Clear